Temp_Advection
nan nan nan nan nan nan nan nan nan nan nan nan nan nan nan nan nan nan nan nan nan nan nan nan nan nan nan nan nan nan nan nan nan nan nan nan nan nan nan nan nan nan nan
nan -0 -0 -0 -0 -0 -0 -0 -0 -1 -0 -0 -0 0 -0 -0 0 0 0 0 -0 -0 -0 -0 -0 0 0 -0 0 0 -0 -0 0 0 0 0 -0 0 0 -0 0 0 nan
nan -0 -0 -0 -0 -0 -0 -0 -0 -0 -0 -0 0 0 -0 -0 0 0 -0 -0 -0 -0 -0 -0 -0 -0 -0 -0 0 -0 0 0 -1 -0 0 -0 -0 0 0 -0 0 0 nan
nan -0 -0 -0 -0 -0 -0 -0 -0 -0 -0 -0 0 0 -0 -0 -0 0 0 -0 -0 -0 -0 -0 -0 -0 -0 -0 -0 0 1 0 -0 -0 -0 0 0 0 0 -0 0 0 nan
nan -0 -0 -0 -0 -0 -0 -0 -0 -1 -1 -0 -0 -0 -0 -0 0 -0 0 -0 -0 -0 -0 -0 -0 -0 -0 -0 0 1 1 1 -0 -0 -0 0 0 0 0 0 0 0 nan
nan 0 -0 -0 -0 -0 -0 -0 -0 -0 -0 -0 -0 -0 -0 -0 -0 -0 -0 -0 -0 -0 -0 -0 -0 -0 -0 0 0 0 0 -0 -0 -0 -0 -0 0 0 0 0 0 0 nan
nan 0 0 -0 -0 -0 -0 -0 -0 -0 -0 -0 -0 -0 -0 -0 -0 -0 -0 -0 -0 -0 -0 0 0 0 0 0 0 0 0 0 0 -0 -0 0 -0 -0 0 0 0 0 nan
nan 0 0 -0 -0 -0 -0 -0 -0 -0 -0 -1 -1 -0 -0 -0 0 -0 -0 -0 -0 -0 -0 -0 -0 -0 0 -0 -0 -0 -0 -0 -0 -0 0 -0 -0 0 0 0 0 0 nan
nan 0 0 -0 -0 -0 -0 -0 -0 -0 -0 -0 -0 -0 -0 -0 -0 -0 -0 -0 -0 -0 -0 -0 -0 -0 -0 -0 -0 -0 -0 -0 -0 -0 0 0 0 0 0 0 0 0 nan
nan 0 0 0 -0 -0 -0 -0 -0 -0 -0 0 0 0 -0 0 -0 -0 -0 -0 0 -0 -0 -0 0 -0 -0 -0 -0 -0 -0 -0 -0 -0 0 0 0 0 -0 -0 0 0 nan
nan 0 0 0 -0 -0 -0 -0 -0 -0 -0 0 0 0 0 0 0 -0 -1 -0 -0 0 -0 -0 0 0 0 0 0 -0 -0 -0 -0 -0 0 -0 -0 -0 -0 -0 -0 -0 nan
nan 0 0 0 0 -0 -0 -0 -0 -0 -0 -0 -0 0 0 0 0 0 -0 -1 -1 -0 -0 -0 -0 0 0 0 0 0 -0 -0 -0 -0 -0 -0 0 -0 -1 -0 0 0 nan
nan 0 0 0 -0 -0 -0 -0 0 -0 0 -0 -0 0 0 0 0 0 0 -0 -1 -1 -0 -0 -0 0 0 0 0 0 0 -0 -0 -0 -0 -0 -0 -1 -0 -0 0 0 nan
nan 0 0 0 0 0 -0 -0 -0 -0 0 0 0 0 0 0 0 0 0 0 -0 -1 -0 0 0 -0 -0 0 0 -0 -0 -0 -0 0 0 -0 -0 -0 -0 -0 -0 -0 nan
nan 0 0 0 0 0 0 0 0 0 -0 0 0 0 0 0 0 0 0 0 0 -0 -1 -0 0 0 0 -0 -0 -0 -0 -0 -0 -0 -0 -0 -0 -0 0 1 0 -0 nan
nan 0 0 0 0 0 0 -0 0 0 0 0 0 0 0 0 0 0 0 0 0 0 -0 -1 -0 0 0 -0 -0 -0 -0 -0 -0 -0 -0 -0 -1 -0 -0 -0 0 0 nan
nan 0 0 0 0 0 0 0 0 0 0 0 0 -0 0 0 0 0 0 0 0 0 -0 -1 -0 -0 0 0 -0 -0 -0 -0 -0 -0 -0 -0 -0 -1 -0 -0 -0 -0 nan
nan -0 -0 0 0 0 0 0 0 0 0 0 0 0 0 0 0 0 0 0 0 0 -0 -1 -0 -0 -0 0 -0 -0 -0 -0 -0 -0 0 0 0 -0 -1 -1 -0 -0 nan
nan -0 -0 -0 0 -0 0 0 0 0 0 0 0 0 -0 -0 0 0 0 0 0 0 0 -0 -1 -1 -0 -0 -0 0 0 0 0 -0 -0 0 0 -0 -0 -0 -0 -0 nan
nan -0 -0 -0 0 0 0 0 0 -0 0 0 0 -0 0 0 0 0 0 0 0 0 0 -0 -0 -0 -0 -0 -0 -1 -0 -0 0 0 0 -0 -0 -0 -0 -0 -0 -0 nan
nan -0 -0 0 0 0 0 0 0 -0 0 0 0 -0 -0 -0 -0 -0 0 0 0 0 0 0 -0 -0 0 0 -0 -1 -1 -1 -0 0 0 0 0 0 -0 0 -0 -0 nan
nan 0 -0 0 0 0 0 0 -0 -0 -0 -0 0 0 -0 -0 -0 -0 -0 0 0 0 0 0 -0 -0 0 0 0 0 -0 -1 -1 -0 -1 -0 0 0 1 0 0 -0 nan
nan 0 0 0 0 0 0 0 0 -0 -0 -0 -0 0 0 0 -0 -0 0 -0 -0 -0 0 -0 -0 -0 -0 0 0 -0 0 -0 -1 0 -1 -2 -1 -0 0 0 0 0 nan
nan 0 0 0 0 0 0 0 0 0 -0 -0 0 -0 -0 -0 0 0 -0 -0 -0 0 0 0 -0 -0 -0 -0 -0 -0 -0 -1 -1 -0 0 -2 -2 -1 -0 -0 -1 -0 nan
nan 0 0 0 0 0 0 0 0 0 -0 -0 0 -0 -0 -0 0 0 -0 -0 -0 -0 0 0 0 0 -0 0 0 -0 -0 -0 -1 -1 1 -1 -3 -2 -1 -1 -0 -1 nan
nan nan nan nan nan nan nan nan nan nan nan nan nan nan nan nan nan nan nan nan nan nan nan nan nan nan nan nan nan nan nan nan nan nan nan nan nan nan nan nan nan nan nan
Wind_Speed
15 14 15 16 17 18 18 18 19 20 20 20 20 21 19 18 17 17 19 19 22 20 17 11 13 18 20 11 18 29 20 28 24 20 19 19 18 18 19 18 18 17 16
15 14 15 16 17 18 17 19 20 21 21 21 20 19 18 16 16 15 15 15 14 14 18 14 13 15 11 10 4 16 23 8 18 15 14 13 14 16 17 18 19 19 19
14 15 16 17 18 18 18 19 19 20 20 19 19 17 16 14 13 13 11 12 11 10 11 14 15 14 12 13 9 19 22 18 20 16 16 16 16 16 15 15 16 18 19
15 15 16 17 17 18 19 19 20 19 18 18 17 15 14 13 9 13 10 9 8 8 8 9 11 10 12 13 11 15 18 22 20 18 17 17 18 19 18 18 18 17 17
16 15 15 16 17 17 19 20 19 20 18 16 15 10 8 8 4 7 9 8 8 9 10 10 11 10 9 8 10 12 15 18 19 17 14 14 15 17 18 18 19 18 17
15 15 15 15 16 16 18 18 18 16 18 18 12 5 4 5 5 4 4 3 3 3 3 3 3 3 2 2 6 8 11 12 13 13 13 13 14 15 17 18 18 19 20
14 14 14 15 15 15 16 17 17 16 15 15 9 3 2 5 4 5 4 4 3 3 3 3 3 3 1 1 1 1 5 5 7 8 8 9 11 12 14 15 15 17 18
15 14 12 13 12 13 14 15 15 15 14 14 13 5 3 1 0 1 1 2 4 4 3 4 3 2 1 2 2 3 3 4 5 5 6 8 9 9 10 11 12 13 14
13 13 11 11 11 12 12 13 13 13 12 10 10 7 3 3 5 3 4 4 5 5 4 4 4 4 4 3 3 4 4 6 5 5 6 7 8 8 8 8 7 9 9
11 11 11 10 10 10 11 12 11 11 10 9 6 7 5 5 4 5 5 5 6 8 9 8 6 5 6 6 4 4 4 5 5 6 8 6 6 7 7 5 4 6 7
12 10 10 10 10 10 11 11 11 11 10 9 8 6 4 2 4 5 9 8 9 10 14 15 14 12 9 5 4 4 5 5 5 6 5 4 5 6 6 8 7 10 11
11 10 9 10 11 11 12 11 11 11 10 9 8 7 6 3 3 5 9 14 14 9 9 10 7 4 4 4 4 4 5 7 8 7 6 9 10 12 14 14 15 15 15
10 10 9 10 10 11 11 11 11 11 10 9 8 7 6 6 7 8 10 12 14 14 7 6 5 1 3 4 5 7 9 11 13 12 13 16 15 15 15 15 15 16 16
13 12 11 11 11 12 12 12 12 11 11 10 9 8 7 7 8 9 10 11 13 10 7 4 5 4 5 5 7 11 13 16 18 19 19 17 15 14 15 15 16 17 19
14 13 13 13 13 13 13 13 12 12 11 11 10 10 9 8 9 9 10 10 10 7 13 4 3 6 8 11 15 19 22 22 20 19 19 19 18 18 17 16 15 16 15
14 14 14 14 13 13 13 13 13 13 13 13 12 12 11 11 11 11 11 12 12 12 12 10 10 12 15 18 19 19 18 18 18 17 17 18 18 18 18 18 18 18 18
15 15 15 15 15 15 15 14 14 14 14 13 13 14 13 14 13 13 13 14 14 15 20 21 19 16 16 16 16 17 18 18 17 16 15 15 15 15 14 15 17 18 19
16 17 17 17 17 17 17 16 16 16 16 16 15 16 15 16 16 15 16 15 16 16 20 23 22 20 18 16 18 18 16 16 17 16 15 15 14 13 15 18 18 17 17
17 18 18 18 18 18 18 17 17 17 16 16 16 16 15 15 16 16 16 17 17 17 19 22 23 21 21 20 19 18 18 18 18 18 17 16 16 16 15 15 14 14 15
20 19 19 19 19 19 18 18 17 16 16 15 15 15 15 15 15 15 15 16 16 17 17 19 21 22 20 19 18 20 19 18 19 19 19 20 18 18 16 14 14 16 17
24 22 21 19 20 20 19 18 18 17 17 17 16 16 15 15 15 16 16 15 16 16 17 18 18 19 19 17 14 14 16 19 18 19 14 13 15 17 17 19 22 23 23
27 25 23 21 20 19 19 19 20 20 20 20 20 19 18 17 17 17 17 17 17 17 17 18 17 18 18 17 18 18 20 21 23 20 21 23 22 21 21 22 23 24 24
27 27 25 23 21 20 19 19 19 21 21 21 20 20 19 18 18 18 17 17 18 18 18 19 20 19 19 19 21 22 21 22 25 26 29 33 30 27 25 24 23 24 25
28 28 26 24 22 20 19 21 22 22 22 22 22 21 20 18 17 17 18 18 18 19 19 20 22 21 22 22 23 24 25 27 30 28 27 32 31 31 28 25 24 23 24
30 28 25 24 23 21 21 22 21 21 20 20 20 19 19 20 19 19 21 23 23 23 22 23 24 25 24 24 24 26 27 27 31 31 30 30 34 34 34 29 25 20 18
27 26 25 24 22 23 20 20 18 19 21 22 22 22 21 22 22 21 23 23 26 25 24 24 25 25 24 25 24 25 26 28 29 33 26 20 25 25 26 30 26 17 13
Wind_Direction
313 319 324 325 325 321 315 313 313 315 314 314 312 304 299 292 289 284 275 277 268 265 271 276 279 279 305 305 305 271 305 227 226 229 234 235 238 240 242 241 242 244 243
316 321 325 325 327 324 320 319 319 318 318 318 316 308 302 296 291 282 275 271 275 268 264 267 269 288 296 306 252 287 279 342 206 197 217 222 229 236 240 243 245 245 245
317 320 323 323 327 326 324 323 322 321 319 319 318 312 305 295 289 277 276 275 278 274 268 264 268 273 282 266 256 258 262 268 268 242 234 237 238 242 244 246 247 248 248
309 315 318 319 323 324 324 326 327 327 327 328 326 317 306 299 287 280 281 291 283 276 270 275 278 276 258 251 251 236 226 241 259 251 244 243 244 245 246 247 247 248 250
303 308 313 315 317 322 325 327 331 331 334 338 335 334 323 320 292 289 282 299 291 277 281 284 286 288 279 259 241 227 223 226 239 249 248 247 245 246 247 246 246 247 247
300 305 311 312 316 319 323 326 330 337 339 343 345 6 4 21 23 26 44 43 353 334 341 346 320 300 284 211 187 175 200 225 242 247 248 250 249 248 247 248 246 246 247
297 299 304 307 312 317 322 328 333 337 342 349 5 35 54 53 54 63 77 58 59 46 52 85 91 71 53 63 65 85 233 239 248 252 256 258 254 252 250 249 249 249 250
301 299 299 302 310 316 322 326 333 341 353 356 6 357 352 338 126 50 3 355 20 27 353 2 359 338 244 285 287 277 289 269 262 261 257 252 256 255 253 250 250 252 254
298 297 300 302 309 316 321 325 333 340 350 0 1 8 351 329 338 273 293 319 329 337 336 310 306 327 324 322 310 294 294 275 268 258 255 253 254 255 257 258 261 258 264
307 297 292 294 305 313 318 320 327 334 341 348 356 355 338 309 334 314 282 281 291 298 290 281 280 284 300 301 308 315 300 306 298 280 266 259 265 263 271 277 257 246 249
315 305 294 290 299 307 311 313 320 325 329 333 335 339 341 338 273 300 303 305 291 303 297 290 273 266 275 279 289 297 313 335 325 325 287 285 287 272 275 253 252 242 237
317 309 300 293 295 302 308 309 312 315 319 322 324 326 322 318 286 289 301 317 329 343 332 335 334 257 240 240 239 255 284 300 310 319 308 315 295 280 280 284 272 269 241
324 316 308 301 297 297 299 298 300 303 306 308 307 309 311 304 299 299 304 315 322 334 340 337 11 245 250 260 270 284 294 302 310 313 312 311 301 290 288 283 277 273 272
328 323 315 305 299 299 297 294 293 293 294 296 295 291 290 293 293 292 296 307 318 321 332 311 294 274 278 275 288 293 299 303 305 304 304 302 299 296 294 292 286 278 273
320 316 314 310 303 298 294 290 288 286 284 284 284 284 287 285 284 286 289 292 299 309 318 322 286 270 276 285 295 299 300 301 303 302 302 301 300 298 292 286 288 288 282
318 313 309 306 302 298 294 291 291 288 288 286 283 281 282 282 281 279 280 280 278 278 273 283 283 284 281 286 291 294 298 299 299 298 297 296 295 296 297 296 292 292 287
317 312 305 301 299 295 290 287 283 279 277 275 273 273 272 272 272 272 273 273 275 275 278 286 290 294 293 297 296 298 302 302 300 297 293 289 289 293 294 292 290 292 293
310 309 305 300 295 292 289 287 284 281 279 277 274 273 274 274 274 272 272 272 271 272 276 285 291 297 296 297 298 297 299 298 298 297 292 290 288 289 297 293 292 289 288
298 301 300 298 295 292 288 284 282 279 278 278 277 276 277 273 275 276 274 273 274 273 275 281 289 294 298 302 299 295 294 292 292 291 290 289 289 291 296 299 293 294 292
288 291 293 294 293 289 287 285 283 281 280 279 279 279 279 280 280 278 276 277 277 276 276 279 286 294 298 303 303 303 299 297 291 288 288 288 288 286 284 281 289 294 291
282 282 284 288 288 286 283 280 280 281 282 281 281 280 280 281 281 280 278 277 276 278 280 283 288 295 300 309 315 314 308 309 308 307 302 292 285 284 283 283 290 290 289
280 277 278 281 282 280 275 277 279 279 279 279 281 278 278 278 278 278 277 276 276 277 278 281 285 287 293 302 308 310 311 313 314 308 303 299 299 296 297 293 289 286 285
281 275 275 278 281 278 274 273 277 279 279 278 278 279 279 279 278 276 274 273 274 276 278 281 282 285 289 294 296 298 299 299 297 298 303 300 301 301 303 302 297 289 283
281 274 271 272 273 270 267 275 278 274 271 271 273 274 276 274 272 273 272 270 270 270 272 276 280 285 286 286 287 291 292 292 291 291 296 295 296 297 299 300 298 294 286
281 273 269 268 268 265 270 277 275 276 275 274 276 277 277 278 280 279 279 280 278 276 276 277 277 279 280 282 284 286 287 290 289 287 286 287 288 294 293 295 298 295 282
282 276 269 267 264 270 276 272 270 270 274 276 275 274 272 275 277 275 277 279 279 281 283 279 277 278 280 278 278 278 281 281 285 288 291 282 287 290 289 287 291 283 271
Height
1518 1516 1513 1511 1509 1506 1503 1501 1498 1495 1493 1490 1488 1486 1484 1483 1481 1481 1481 1481 1482 1483 1483 1483 1481 1480 1478 1478 1470 1477 1478 1487 1491 1494 1498 1500 1502 1504 1507 1508 1509 1510 1512
1516 1513 1511 1509 1507 1504 1502 1499 1496 1493 1490 1487 1485 1483 1481 1479 1478 1478 1478 1479 1480 1479 1480 1480 1480 1480 1482 1483 1479 1481 1482 1479 1478 1488 1493 1495 1497 1500 1502 1504 1505 1506 1508
1514 1511 1509 1507 1505 1502 1500 1497 1494 1491 1488 1485 1482 1480 1478 1476 1476 1477 1476 1477 1477 1477 1477 1477 1477 1476 1473 1482 1479 1481 1483 1483 1476 1486 1489 1491 1493 1496 1499 1500 1501 1502 1504
1511 1509 1507 1504 1502 1500 1498 1495 1492 1489 1485 1482 1479 1478 1476 1474 1473 1475 1476 1477 1476 1476 1475 1475 1474 1477 1479 1482 1477 1477 1482 1484 1483 1484 1485 1487 1489 1492 1494 1496 1498 1499 1500
1508 1506 1504 1502 1500 1498 1496 1493 1490 1486 1483 1480 1477 1475 1474 1472 1472 1473 1474 1476 1475 1474 1474 1474 1473 1473 1473 1474 1476 1477 1479 1482 1482 1483 1482 1483 1486 1487 1490 1492 1494 1495 1496
1506 1504 1502 1500 1498 1496 1494 1491 1488 1486 1482 1479 1476 1475 1474 1473 1472 1473 1474 1474 1474 1472 1471 1471 1471 1472 1473 1474 1476 1472 1478 1477 1478 1479 1479 1480 1482 1483 1486 1488 1489 1490 1491
1503 1501 1499 1498 1496 1494 1492 1489 1487 1484 1481 1479 1476 1476 1475 1474 1474 1474 1474 1475 1474 1473 1473 1473 1471 1471 1473 1472 1472 1469 1477 1473 1476 1475 1474 1476 1479 1480 1482 1483 1484 1485 1487
1500 1498 1497 1496 1494 1493 1491 1488 1486 1483 1481 1479 1477 1476 1475 1476 1474 1473 1474 1475 1475 1474 1473 1472 1472 1472 1473 1472 1472 1475 1471 1473 1474 1472 1472 1476 1476 1478 1480 1480 1480 1481 1483
1498 1496 1495 1494 1492 1491 1489 1487 1485 1483 1481 1480 1478 1478 1476 1475 1473 1473 1473 1474 1475 1475 1475 1474 1474 1473 1472 1471 1472 1472 1472 1474 1471 1471 1473 1474 1474 1476 1477 1478 1477 1479 1480
1496 1494 1493 1492 1491 1489 1488 1486 1484 1482 1481 1479 1479 1478 1477 1477 1475 1473 1472 1472 1473 1473 1473 1473 1474 1474 1474 1474 1472 1472 1472 1471 1471 1470 1471 1471 1474 1473 1474 1474 1475 1475 1475
1493 1492 1491 1491 1489 1488 1487 1485 1483 1482 1480 1479 1478 1477 1476 1475 1476 1475 1472 1470 1470 1470 1468 1469 1470 1470 1471 1471 1470 1469 1469 1469 1469 1469 1469 1473 1471 1470 1471 1470 1470 1470 1470
1492 1490 1489 1489 1488 1487 1486 1485 1483 1481 1480 1479 1477 1476 1476 1475 1474 1474 1472 1469 1468 1467 1465 1465 1465 1466 1468 1468 1468 1468 1468 1468 1468 1468 1468 1466 1465 1465 1464 1464 1464 1464 1466
1490 1488 1487 1486 1486 1485 1484 1483 1482 1481 1479 1478 1477 1476 1475 1474 1473 1473 1472 1470 1468 1465 1465 1465 1464 1464 1465 1466 1466 1466 1466 1465 1464 1463 1463 1463 1461 1460 1459 1458 1459 1459 1460
1489 1487 1486 1485 1484 1483 1482 1481 1480 1479 1477 1476 1475 1474 1473 1472 1472 1471 1470 1470 1468 1465 1464 1463 1463 1463 1463 1464 1463 1463 1463 1462 1461 1460 1460 1458 1456 1455 1455 1454 1454 1454 1455
1487 1485 1484 1483 1482 1481 1480 1479 1478 1477 1475 1474 1474 1472 1472 1471 1470 1469 1468 1468 1468 1467 1464 1462 1462 1462 1462 1461 1460 1459 1458 1457 1456 1455 1455 1454 1453 1452 1451 1450 1450 1450 1450
1484 1483 1481 1480 1479 1478 1478 1476 1475 1474 1473 1473 1472 1471 1469 1469 1467 1466 1466 1466 1465 1465 1463 1461 1461 1461 1460 1459 1458 1456 1454 1453 1452 1452 1451 1451 1450 1450 1449 1449 1448 1447 1447
1481 1479 1478 1477 1476 1475 1474 1473 1472 1471 1470 1469 1468 1467 1466 1465 1464 1464 1462 1462 1462 1462 1459 1458 1458 1458 1457 1456 1455 1454 1453 1452 1451 1450 1449 1449 1448 1447 1447 1446 1445 1445 1444
1478 1476 1475 1474 1473 1471 1470 1469 1468 1467 1467 1466 1465 1464 1463 1462 1461 1460 1459 1459 1459 1458 1457 1454 1454 1454 1454 1453 1452 1450 1450 1448 1447 1447 1447 1446 1446 1446 1445 1443 1443 1441 1440
1474 1473 1471 1470 1469 1468 1466 1465 1464 1463 1462 1461 1461 1461 1460 1458 1457 1457 1456 1455 1454 1454 1454 1452 1451 1451 1450 1449 1448 1447 1446 1445 1444 1443 1443 1443 1442 1442 1442 1440 1439 1438 1437
1469 1468 1467 1466 1465 1464 1463 1462 1460 1459 1458 1458 1457 1456 1456 1455 1454 1453 1452 1451 1451 1450 1449 1448 1447 1446 1446 1445 1444 1442 1441 1441 1441 1441 1440 1439 1438 1438 1437 1436 1436 1435 1434
1465 1464 1462 1461 1460 1460 1459 1458 1456 1455 1454 1454 1453 1452 1451 1451 1450 1449 1448 1447 1446 1445 1445 1444 1443 1442 1441 1440 1439 1438 1437 1436 1436 1436 1435 1435 1434 1434 1433 1432 1431 1430 1429
1459 1458 1456 1455 1454 1453 1452 1452 1451 1450 1449 1448 1448 1447 1446 1445 1444 1444 1443 1443 1442 1441 1441 1439 1439 1438 1437 1437 1436 1434 1432 1431 1430 1431 1430 1430 1431 1430 1430 1428 1426 1424 1423
1453 1453 1452 1450 1449 1448 1447 1446 1445 1444 1443 1443 1442 1441 1441 1441 1440 1438 1438 1438 1438 1437 1436 1436 1435 1434 1433 1433 1431 1430 1429 1428 1426 1427 1423 1421 1423 1424 1423 1422 1420 1419 1417
1446 1445 1444 1443 1441 1441 1441 1440 1439 1437 1436 1436 1435 1434 1434 1433 1433 1433 1432 1431 1433 1433 1432 1431 1429 1429 1428 1428 1426 1425 1423 1421 1420 1421 1421 1414 1416 1415 1416 1416 1415 1414 1412
1440 1437 1436 1436 1434 1434 1434 1432 1431 1431 1430 1430 1430 1429 1428 1428 1428 1427 1426 1426 1425 1426 1427 1425 1424 1423 1423 1422 1421 1419 1418 1417 1414 1414 1414 1411 1410 1409 1408 1408 1408 1408 1407
1434 1433 1429 1428 1426 1426 1427 1426 1424 1423 1423 1423 1423 1423 1422 1421 1421 1421 1419 1418 1417 1418 1418 1417 1416 1416 1415 1415 1415 1414 1413 1411 1410 1405 1407 1407 1405 1406 1403 1401 1402 1402 1402